Weather in Esme

Turkey     38°23′50″N   28°58′10″E
temp.,
°C
wind,
m/s
gust,
m/s
humid.,
%
clouds,
%
prec.,
mm/h
press.,
hPa
HPBL,
m
7 may, fri
fri700:00+14nnw22704 0.0 101611
03:00+12ne227720 0.0 101611
06:00+11e22787 0.0 101611
09:00+17e235331 0.0 1016411
12:00+22se223165 0.0 10151177
15:00+26wsw23197 0.0 10131638
18:00+26w342065 0.0 10121494
21:00+19wsw114674 0.0 101311
8 may, sat
sat800:00+18sw114969 0.0 101411
03:00+17ese2247100 0.0 101211
06:00+18se2241100 0.0 101213
09:00+22wnw1231100 0.0 1013378
12:00+24wnw4528100 0.0 1014929
15:00+25se3627100 0.1 1010930
18:00+26wnw55254 0.0 10091313
21:00+20wnw33404 0.0 101124
9 may, sun
sun900:00+17nw33514 0.0 101321
03:00+14nnw33730 0.0 101426
06:00+12nnw34911 0.0 101770
09:00+16nne77575 0.0 1018897
12:00+20nne66405 0.0 10171393
15:00+22nne77299 0.0 10161671
18:00+20nne77270 0.0 10161133
21:00+14nne58410 0.0 1019176
10 may, mon
mon1000:00+11ne46500 0.0 1020108
03:00+9ne35550 0.0 101972
06:00+8ne33510 0.0 101940
09:00+14ene68340 0.0 1018656
12:00+20ne77240 0.0 10171180
15:00+24ne66190 0.0 10151644
18:00+23ne77200 0.0 10141650
21:00+16ene612270 0.0 1015185
11 may, tue
tue1100:00+13ne34350 0.0 101641
03:00+11nne22390 0.0 101513
06:00+10ne22380 0.0 101513
09:00+16ne35280 0.0 1015511
12:00+21nne34200 0.0 10131250
15:00+25n43170 0.0 10111766
18:00+25nnw65190 0.0 10102083
21:00+15wnw35490 0.0 101172